Weather in Sukhoy Karabulak

Russia / Saratov Oblast     52°00′44″N   46°25′08″E
temp.,
°C
wind,
m/s
gust,
m/s
humid.,
%
clouds,
%
prec.,
mm/h
press.,
hPa
HPBL,
m
26 february, fri
fri2601:00−9s3596100 0.3 1015125
04:00−9ssw1297100 0.4 101421
07:00−9nnw019796 0.1 101421
10:00−5e119698 0.1 101444
13:00−2se2397100 0.2 1014142
16:00−1sse4699100 1.1 1011198
19:00+1ssw48100100 1.4 1009215
22:00+2wsw71599100 1.5 1005392
27 february, sat
sat2701:00+2wsw61498100 0.1 1003446
04:00+2w51394100 0.1 1004658
07:00−1wsw4129173 0.0 1003331
10:00+1w5119282 0.0 1004732
13:00+1wsw41010099 0.1 1003608
16:00+1wsw51198100 0.1 1002601
19:000wsw61297100 0.1 1001640
22:00−7nw6128698 0.4 1003520
28 february, sun
sun2801:00−11wnw6138825 0.0 1004422
04:00−12nw5128853 0.0 1006497
07:00−14nw5128974 0.0 1008414
10:00−14nw6118752 0.0 1010448
13:00−11nnw698652 0.0 1012516
16:00−10nnw598665 0.0 1013621
19:00−13nw488968 0.0 1015156
22:00−15nnw469034 0.0 1017122
1 march, mon
mon101:00−17nnw33910 0.0 101864
04:00−18nnw33917 0.0 102040
07:00−20nnw33920 0.0 102234
10:00−17n36890 0.0 1024265
13:00−14n34850 0.0 1026360
16:00−12nnw248724 0.0 1027393
19:00−15nw239012 0.0 102821
22:00−17nw22906 0.0 103020
2 march, tue
tue201:00−17wnw22930 0.0 102920
04:00−18w23910 0.0 102820
07:00−18wsw239150 0.0 102623
10:00−13sw479375 0.0 1023258
13:00−6sw71192100 0.0 1020532
16:00−3wsw71395100 1.1 1016693
19:00−2wsw61297100 1.6 1012619
22:00−1wsw51295100 3.1 1010566